This is the latest recevied weather packets stored in our database for station/object KC4MCQ-10. If no packets are shown the sender has not sent any weather packets the latest 10 day(s).
| Time | Temp. | Humidity | Pressure | Rain* | Wind** | Luminosity | Snow |
|---|---|---|---|---|---|---|---|
| 1788028083 | 33.33° C | 64% | 1018.1 hPa | 2.03 mm | 1.79 m/s, 126° | - | - |
| 1788027483 | 33.33° C | 64% | 1018.2 hPa | 2.03 mm | 0.89 m/s, 256° | - | - |
| 1788026883 | 32.78° C | 65% | 1018.4 hPa | 2.03 mm | 1.79 m/s, 184° | - | - |
| 1788026281 | 32.78° C | 69% | 1018.7 hPa | 6.35 mm | 1.79 m/s, 101° | - | - |
| 1788025677 | 32.22° C | 70% | 1018.8 hPa | 6.35 mm | 1.34 m/s, 138° | - | - |
| 1788025068 | 32.22° C | 69% | 1018.9 hPa | 6.35 mm | 0 m/s | - | - |
| 1788024467 | 32.22° C | 70% | 1019 hPa | 6.35 mm | 0.89 m/s, 105° | - | - |
| 1788023866 | 32.22° C | 66% | 1019 hPa | 6.35 mm | 1.79 m/s, 118° | - | - |
| 1788023264 | 32.22° C | 67% | 1019.2 hPa | 6.35 mm | 0 m/s | - | - |
| 1788022664 | 32.22° C | 68% | 1019.4 hPa | 6.35 mm | 1.79 m/s, 210° | - | - |
| 1788022060 | 31.67° C | 70% | 1019.4 hPa | 6.35 mm | 0.89 m/s, 121° | - | - |
| 1788021460 | 31.67° C | 70% | 1019.6 hPa | 6.35 mm | 0 m/s | - | - |
| 1788020855 | 31.11° C | 69% | 1019.6 hPa | 6.35 mm | 0.45 m/s, 86° | - | - |
| 1788020255 | 31.11° C | 73% | 1019.8 hPa | 6.35 mm | 2.24 m/s, 133° | - | - |
| 1788019654 | 31.11° C | 74% | 1019.7 hPa | 6.35 mm | 0.45 m/s, 90° | - | - |
| 1788019041 | 31.11° C | 76% | 1019.5 hPa | 6.35 mm | 0.89 m/s, 155° | - | - |
| 1788018440 | 31.11° C | 75% | 1019.6 hPa | 6.35 mm | 1.34 m/s, 36° | - | - |
| 1788017840 | 31.11° C | 74% | 1019.6 hPa | 6.35 mm | 1.34 m/s, 201° | - | - |
| 1788017240 | 30° C | 76% | 1019.7 hPa | 6.35 mm | 0.89 m/s, 146° | - | - |
| 1788016639 | 30° C | 76% | 1019.7 hPa | 6.35 mm | 0.89 m/s, 252° | - | - |
| 1788016037 | 30° C | 77% | 1019.6 hPa | 6.35 mm | 0.89 m/s, 5° | - | - |
| 1788015413 | 30.56° C | 77% | 1019.8 hPa | 6.35 mm | 0.45 m/s, 321° | - | - |
| 1788014812 | 30° C | 78% | 1019.7 hPa | 6.35 mm | 0.89 m/s, 261° | - | - |
| 1788014213 | 29.44° C | 79% | 1019.6 hPa | 6.35 mm | 0.89 m/s, 138° | - | - |
| 1788013611 | 28.89° C | 81% | 1019.7 hPa | 6.35 mm | 1.34 m/s, 105° | - | - |
* Rain latest 24 hours (hover to see other rain measurements)
** Current wind speed in m/s (hover to see current wind gust speed)